Wetbulb
39.84 39.72 40.27 40.62 40.26 40.22 40.59 41.69 42.96 44.00 44.69 48.78 50.24 52.04 52.65 52.04 48.94 47.99 50.44 49.30 48.66 46.88
39.41 39.63 40.06 40.27 40.25 40.35 40.74 42.78 43.72 44.20 44.68 48.78 50.39 51.41 52.51 50.35 48.51 49.18 49.79 48.19 48.77 48.53
39.49 39.78 40.04 40.40 40.44 40.77 41.42 42.54 43.66 44.10 44.57 48.22 49.95 51.74 50.90 50.27 47.77 47.33 49.14 48.20 48.13 48.35
39.10 39.71 40.20 40.33 40.60 41.16 42.38 43.17 43.60 44.04 44.61 46.38 49.04 50.01 49.81 47.99 47.11 46.93 47.20 46.05 47.88 47.84
38.91 39.38 39.68 40.02 40.63 41.55 42.68 43.83 43.90 44.04 44.67 45.84 49.99 51.21 51.14 48.86 47.29 46.66 45.47 45.59 47.11 47.43
38.31 38.78 39.64 40.33 40.80 41.46 42.50 43.15 43.59 44.32 44.35 46.68 49.76 51.37 51.19 50.16 48.17 47.27 46.71 46.27 46.43 46.91
37.90 38.72 39.44 40.16 40.60 41.80 42.76 42.98 43.53 44.10 44.66 45.65 49.67 51.42 50.96 49.92 49.14 48.14 48.49 47.50 47.48 47.40
38.24 38.96 39.43 39.58 40.28 41.76 42.53 43.56 45.20 44.26 44.60 45.75 49.02 50.63 50.37 49.34 48.80 48.44 48.19 47.42 48.53 48.86
38.11 38.55 38.59 39.30 40.15 41.15 42.40 45.21 45.82 45.55 43.81 44.69 47.70 44.21 44.75 47.87 48.91 48.35 47.81 47.05 45.12 44.36
37.31 37.66 38.12 38.37 39.85 41.06 42.51 44.93 44.92 45.08 43.56 44.74 47.02 43.64 43.14 43.34 48.66 48.17 47.36 46.37 44.77 42.94
36.32 36.58 36.63 37.31 38.97 40.48 42.93 43.91 43.81 43.68 43.16 45.04 45.56 42.18 42.18 41.27 48.12 47.00 46.22 45.32 44.76 43.85
36.41 36.36 36.46 37.10 38.38 39.83 41.74 42.99 43.47 42.67 43.97 44.38 44.98 41.04 41.04 45.03 46.06 44.32 43.56 43.62 43.71 43.06
36.01 36.93 36.92 36.95 37.16 38.29 40.57 39.02 36.05 39.12 40.34 38.08 43.22 40.55 40.91 44.92 44.20 42.33 36.87 39.46 39.50 36.60
34.21 34.99 37.50 37.66 36.34 37.51 37.60 36.65 36.51 36.67 36.91 36.66 37.13 41.90 40.58 42.53 43.84 40.69 37.05 36.21 36.38 36.69
MSLP
1018.65 1018.88 1019.07 1019.01 1019.23 1019.35 1019.14 1018.82 1018.65 1018.43 1018.21 1017.81 1017.71 1017.46 1017.36 1017.44 1017.59 1017.81 1017.75 1017.84 1017.98 1018.13
1018.64 1018.77 1018.86 1019.10 1019.13 1019.24 1019.19 1018.80 1018.64 1018.50 1018.36 1017.78 1017.66 1017.63 1017.72 1017.79 1017.92 1018.10 1018.17 1018.19 1018.29 1018.53
1018.47 1018.63 1018.83 1018.90 1019.04 1019.15 1019.04 1018.92 1018.76 1018.45 1018.40 1018.03 1017.70 1017.70 1018.06 1018.22 1018.39 1018.47 1018.43 1018.71 1019.02 1019.22
1018.31 1018.43 1018.67 1018.95 1018.87 1018.95 1018.93 1018.83 1018.84 1018.72 1018.35 1018.23 1017.88 1017.92 1018.11 1018.66 1018.71 1018.97 1019.10 1019.18 1019.20 1019.75
1018.12 1018.33 1018.41 1018.80 1018.80 1018.96 1018.87 1018.69 1018.70 1018.75 1018.56 1018.34 1018.09 1018.01 1018.11 1018.62 1019.01 1019.06 1019.58 1019.73 1019.86 1020.09
1017.98 1018.15 1018.29 1018.53 1018.67 1018.81 1018.76 1018.76 1018.84 1018.77 1018.58 1018.47 1018.18 1018.18 1018.25 1018.36 1019.12 1019.54 1019.54 1019.82 1020.05 1020.19
1017.72 1017.82 1018.13 1018.24 1018.52 1018.62 1018.68 1018.71 1018.48 1018.71 1018.75 1018.48 1018.25 1018.09 1018.39 1018.54 1018.80 1019.45 1019.89 1019.88 1020.12 1020.41
1017.33 1017.53 1017.87 1018.05 1018.28 1018.53 1018.57 1018.58 1018.56 1018.50 1018.59 1018.51 1018.28 1018.13 1018.20 1018.67 1018.97 1019.26 1019.80 1020.14 1020.26 1020.59
1017.26 1017.46 1017.74 1017.93 1018.15 1018.49 1018.63 1018.34 1018.21 1018.31 1018.54 1018.50 1018.28 1018.17 1018.25 1018.42 1018.87 1019.39 1019.73 1020.25 1020.52 1020.80
1017.04 1017.48 1017.68 1017.88 1018.15 1018.29 1018.38 1018.40 1018.40 1018.21 1018.28 1018.23 1018.26 1018.24 1018.25 1018.47 1018.81 1019.24 1019.65 1020.14 1020.64 1021.05
1017.12 1017.45 1017.69 1017.91 1018.20 1018.36 1018.12 1018.25 1018.13 1018.31 1018.25 1018.17 1018.09 1018.11 1018.18 1018.48 1018.78 1019.19 1019.58 1020.12 1020.60 1021.06
1016.95 1017.19 1017.44 1017.82 1018.13 1018.31 1018.52 1018.26 1018.28 1018.10 1018.24 1018.29 1018.06 1017.97 1018.01 1018.41 1018.75 1019.21 1019.64 1020.10 1020.62 1021.12
1016.83 1017.13 1017.38 1017.50 1017.78 1017.81 1018.33 1018.39 1018.45 1018.30 1018.23 1018.47 1018.29 1018.03 1018.05 1018.28 1018.69 1019.30 1019.98 1020.11 1020.62 1021.07
1017.09 1017.32 1017.47 1017.70 1017.90 1017.87 1018.09 1018.20 1018.67 1018.57 1018.33 1018.25 1018.73 1018.30 1018.23 1018.31 1018.61 1019.03 1019.86 1020.42 1020.59 1020.85
Wind_Speed
4 3 3 3 2 3 2 1 3 4 5 4 5 5 2 2 3 2 4 6 5 4
4 4 4 3 2 2 2 1 2 3 5 4 4 4 4 2 3 2 5 4 7 6
5 4 3 3 4 4 2 1 1 3 3 5 4 3 4 2 4 4 3 5 6 6
5 5 4 4 4 4 3 2 1 2 3 4 4 2 4 3 3 5 5 4 7 6
5 4 5 4 4 4 4 2 2 1 2 3 1 3 3 4 3 4 5 6 7 8
6 5 5 5 4 4 3 4 3 2 2 3 1 4 2 3 4 4 5 6 6 9
6 6 5 5 5 5 4 4 3 2 4 3 3 4 4 3 2 4 4 5 6 6
6 5 5 5 5 4 4 3 4 2 3 4 3 3 6 5 4 4 5 5 5 5
5 5 5 5 5 4 5 4 4 3 4 5 3 3 8 7 5 5 5 5 5 6
6 5 5 5 5 5 5 4 4 4 4 5 4 4 9 10 5 6 5 6 5 5
5 5 4 4 5 4 4 5 4 5 5 4 4 5 9 11 6 5 6 6 5 5
5 5 5 5 5 3 3 3 4 3 4 4 5 5 8 9 6 6 6 6 6 6
5 5 5 5 5 3 2 3 2 4 1 4 6 3 7 7 5 5 3 5 6 8
3 4 4 3 2 3 4 2 2 4 2 2 5 4 5 8 5 6 5 4 4 4
Wind_Direction
193 183 206 193 201 233 233 260 306 332 330 338 350 334 27 98 95 108 86 104 82 74
196 180 200 221 215 241 249 240 308 332 335 335 10 1 23 69 89 90 97 76 106 100
202 190 196 193 231 247 247 249 299 323 346 327 16 24 51 59 65 90 74 106 91 93
206 190 189 206 236 242 248 227 244 301 336 327 353 358 89 92 104 106 96 70 111 97
202 190 184 215 232 256 257 247 224 252 311 298 355 293 142 129 127 126 120 126 128 125
205 196 198 212 219 243 246 273 282 263 239 290 268 170 200 158 155 147 141 147 141 149
200 202 205 204 216 221 225 253 259 266 274 262 259 162 159 157 163 134 140 149 143 146
201 194 198 195 212 219 220 235 259 258 280 264 253 185 150 162 155 146 137 142 137 133
190 189 199 197 198 216 239 231 223 242 273 265 249 201 168 159 149 149 147 152 130 124
177 194 201 197 189 204 226 230 245 236 252 248 263 249 178 167 156 154 153 147 146 137
178 193 199 184 207 222 218 225 217 247 235 246 256 253 176 168 154 149 143 150 151 163
182 187 181 197 207 219 249 233 241 233 246 244 263 232 165 157 146 151 153 147 147 146
179 178 192 195 200 166 237 231 250 240 225 321 284 225 181 151 145 142 138 147 149 156
166 184 191 199 164 188 206 161 268 252 203 77 306 276 213 167 164 160 152 171 174 181